Stations météo

réclame
Mon MeteoGroup
Wick Airport (AWS), Grande-Bretagne (3075): Température de l'air & dewpoint: 13.01.2020 20:00:00 - 19.01.2020 20:00:00 (GMT)Wick Airport (AWS), Grande-Bretagne (3075): Température de l'air -20cm: 13.01.2020 20:00:00 - 19.01.2020 20:00:00 (GMT)Wick Airport (AWS), Grande-Bretagne (3075): Vitesse du vent & gusts: 13.01.2020 20:00:00 - 19.01.2020 20:00:00 (GMT)Wick Airport (AWS), Grande-Bretagne (3075): Direction du vent: 13.01.2020 20:00:00 - 19.01.2020 20:00:00 (GMT)Wick Airport (AWS), Grande-Bretagne (3075): reduced air pressure: 13.01.2020 20:00:00 - 19.01.2020 20:00:00 (GMT)Wick Airport (AWS), Grande-Bretagne (3075): visibility: 13.01.2020 20:00:00 - 19.01.2020 20:00:00 (GMT)Wick Airport (AWS), Grande-Bretagne (3075): Quantités de précipitations: 13.01.2020 20:00:00 - 19.01.2020 20:00:00 (GMT)
Date & Time tt [°C] td [°C] tt -20cm [°C] ff [km/h] ff [knt] fx [km/h] fx [knt] dd ppp [hPa] vv [km] rr [mm]
19.01.2020 20:00:00 8,4 3,9 - 16 9 - - S 1034,1 30 0,0
19.01.2020 19:00:00 7,9 2,9 - 18 10 - - SW 1034,4 35 0,0
19.01.2020 18:00:00 7,6 2,5 - 22 12 - - SSW 1034,3 35 0,0
19.01.2020 17:00:00 6,6 2,3 - 16 9 - - SSW 1034,8 35 0,0
19.01.2020 16:00:00 6,0 2,5 - 18 10 - - SSW 1034,5 27 0,0
19.01.2020 15:00:00 6,1 2,3 - 18 10 - - SSW 1034,6 25 0,0
19.01.2020 14:00:00 6,4 2,4 - 16 9 - - SSW 1034,3 30 0,0
19.01.2020 13:00:00 6,2 3,0 - 18 10 - - S 1034,7 35 0,0
19.01.2020 12:00:00 5,9 3,0 - 15 8 - - S 1035,3 35 0,0
19.01.2020 11:00:00 6,0 3,0 - 24 13 - - SSW 1035,4 35 0,0
19.01.2020 10:00:00 5,3 2,8 - 18 10 - - S 1035,3 45 0,0
19.01.2020 09:00:00 4,7 0,9 3,9 13 7 - - S 1036,4 50 0,0
19.01.2020 08:00:00 4,2 0,8 - 13 7 - - SSW 1036,3 50 0,0
19.01.2020 07:00:00 3,3 0,2 - 9 5 - - S 1036,2 45 0,0
19.01.2020 06:00:00 3,3 0,0 - 13 7 - - SSW 1036,2 45 0,0
19.01.2020 05:00:00 3,1 0,0 - 15 8 - - S 1035,4 45 0,0
19.01.2020 04:00:00 2,3 -0,7 - 13 7 - - SSW 1034,7 45 0,0
19.01.2020 03:00:00 2,6 -0,5 - 13 7 - - SW 1034,1 45 0,0
19.01.2020 02:00:00 1,4 -0,5 - 18 10 - - W 1033,5 35 0,0
19.01.2020 01:00:00 1,8 0,0 - 21 11 - - W 1032,7 40 0,0
19.01.2020 00:00:00 2,0 0,2 - 24 13 - - W 1032,3 35 0,0
18.01.2020 23:00:00 2,4 0,6 - 24 13 - - W 1031,5 35 0,0
18.01.2020 22:00:00 2,2 0,7 - 21 11 - - W 1030,7 21 0,0
18.01.2020 21:00:00 2,5 1,1 - 21 11 - - W 1029,4 11 0,0
18.01.2020 20:00:00 3,1 1,1 - 18 10 48 26 W 1028,7 21 0,2
18.01.2020 19:00:00 4,4 2,0 - 28 15 48 26 W 1027,7 5 0,4
18.01.2020 18:00:00 4,8 1,9 - 34 18 57 31 W 1026,2 20 0,0
18.01.2020 17:00:00 4,8 0,9 - 34 18 65 35 WNW 1024,7 18 0,6
18.01.2020 16:00:00 5,0 2,8 - 29 16 68 37 WNW 1023,5 12 0,2
18.01.2020 15:00:00 4,9 1,4 - 39 21 55 30 W 1021,8 22 0,0
18.01.2020 14:00:00 4,9 1,2 - 44 24 70 38 WNW 1020,8 3,2 0,0
18.01.2020 13:00:00 4,0 1,2 - 44 24 74 40 WNW 1019,5 26 0,0
18.01.2020 12:00:00 3,1 0,8 - 48 26 76 41 WNW 1018,8 21 0,2
18.01.2020 11:00:00 3,2 0,5 - 29 16 61 33 W 1017,4 35 0,4
18.01.2020 10:00:00 2,6 1,0 - 24 13 - - WSW 1016,3 16 0,0
18.01.2020 09:00:00 2,6 1,0 4,2 39 21 74 40 W 1015,2 35 0,2
18.01.2020 08:00:00 1,8 0,5 - 22 12 59 32 SW 1014,0 27 0,2
18.01.2020 07:00:00 1,9 0,3 - 28 15 54 29 W 1013,4 40 0,4
18.01.2020 06:00:00 2,8 0,8 - 34 18 46 25 W 1012,1 15 0,0
18.01.2020 05:00:00 2,8 0,6 - 31 17 55 30 W 1011,1 21 0,2
18.01.2020 04:00:00 2,8 0,2 - 22 12 67 36 WSW 1010,2 19 0,0
18.01.2020 03:00:00 4,2 -0,2 - 42 23 57 31 W 1009,3 26 0,0
18.01.2020 02:00:00 4,0 0,5 - 21 11 - - WSW 1008,4 12 0,0
18.01.2020 01:00:00 4,1 1,4 - 24 13 46 25 WSW 1007,3 13 0,0
18.01.2020 00:00:00 3,4 1,7 - 26 14 55 30 W 1006,3 10 0,0
17.01.2020 23:00:00 2,7 1,1 - 35 19 61 33 W 1005,1 30 0,0
17.01.2020 22:00:00 3,5 1,8 - 44 24 61 33 W 1004,0 50 0,0
17.01.2020 21:00:00 4,3 2,3 - 29 16 - - W 1003,3 23 0,0
17.01.2020 20:00:00 4,5 2,1 - 29 16 - - W 1002,7 35 0,0
17.01.2020 19:00:00 5,3 2,2 - 28 15 - - WSW 1002,0 24 0,0
17.01.2020 18:00:00 4,7 1,9 - 26 14 - - SW 1001,2 22 0,0
17.01.2020 17:00:00 5,5 2,0 - 34 18 - - SW 1000,3 30 0,0
17.01.2020 16:00:00 5,9 2,3 - 31 17 - - SW 999,6 20 0,0
17.01.2020 15:00:00 6,4 1,8 - 31 17 55 30 SW 998,6 18 0,0
17.01.2020 14:00:00 7,0 1,3 - 41 22 63 34 SW 997,7 19 0,0
17.01.2020 13:00:00 6,9 2,4 - 39 21 55 30 SSW 996,9 40 0,0
17.01.2020 12:00:00 5,9 2,3 - 34 18 52 28 SSW 996,6 24 0,0
17.01.2020 11:00:00 5,7 2,0 - 34 18 61 33 SSW 996,1 30 0,0
17.01.2020 10:00:00 5,5 1,0 - 42 23 63 34 SSW 994,9 23 0,0
17.01.2020 09:00:00 5,4 1,0 4,2 42 23 78 42 S 994,5 21 0,0
17.01.2020 08:00:00 5,7 1,4 - 44 24 63 34 S 993,7 23 0,0
17.01.2020 07:00:00 5,8 1,6 - 46 25 68 37 S 993,5 30 0,0
17.01.2020 06:00:00 5,9 1,8 - 50 27 74 40 S 993,2 29 0,0
17.01.2020 05:00:00 5,8 2,3 - 42 23 68 37 S 992,7 30 0,0
17.01.2020 04:00:00 6,3 2,4 - 44 24 67 36 SSW 992,7 27 0,0
17.01.2020 03:00:00 6,5 2,4 - 39 21 57 31 SSW 992,8 28 0,0
17.01.2020 02:00:00 6,4 3,3 - 37 20 55 30 SSW 992,7 30 0,0
17.01.2020 01:00:00 6,5 3,2 - 37 20 54 29 SSW 992,4 35 0,0
17.01.2020 00:00:00 7,0 3,3 - 41 22 63 34 SSW 991,6 26 0,0
16.01.2020 23:00:00 7,2 3,7 - 31 17 54 29 S 990,7 40 0,0
16.01.2020 22:00:00 8,0 5,6 - 26 14 - - S 990,1 17 0,0
16.01.2020 21:00:00 7,9 6,0 - 28 15 52 28 SSE 989,4 13 0,0
16.01.2020 20:00:00 7,7 5,9 - 31 17 63 34 SSE 988,9 12 0,0
16.01.2020 19:00:00 7,3 5,9 - 35 19 59 32 SE 989,7 9 1,4
16.01.2020 18:00:00 6,9 5,8 - 37 20 59 32 SE 991,9 4,3 1,8
16.01.2020 17:00:00 7,3 5,0 - 31 17 55 30 SSE 993,6 9 0,0
16.01.2020 16:00:00 7,3 4,8 - 31 17 54 29 SE 995,3 16 0,0
16.01.2020 15:00:00 7,6 4,8 - 37 20 59 32 SE 996,6 17 0,0
16.01.2020 14:00:00 7,4 5,1 - 29 16 55 30 SE 998,6 13 0,0
16.01.2020 13:00:00 7,3 5,0 - 24 13 54 29 SE 1000,2 14 0,0
16.01.2020 12:00:00 7,0 4,8 - 35 19 54 29 SSE 1001,2 15 0,0
16.01.2020 11:00:00 6,7 4,1 - 29 16 48 26 SE 1001,9 19 0,0
16.01.2020 10:00:00 6,4 3,0 - 28 15 - - SE 1002,9 25 0,0
16.01.2020 09:00:00 6,5 2,3 4,0 21 11 - - SSE 1003,4 28 0,0
16.01.2020 08:00:00 6,1 2,6 - 21 11 - - S 1003,1 27 0,0
16.01.2020 07:00:00 5,0 2,3 - 16 9 - - S 1003,0 23 0,0
16.01.2020 06:00:00 4,8 1,3 - 24 13 46 25 SSW 1002,3 45 0,0
16.01.2020 05:00:00 5,2 1,6 - 34 18 46 25 SSW 1001,7 30 0,0
16.01.2020 04:00:00 4,2 -0,1 - 24 13 - - SSW 1001,3 45 0,0
16.01.2020 03:00:00 5,5 0,6 - 28 15 50 27 SSW 1000,1 40 0,0
16.01.2020 02:00:00 6,0 1,6 - 41 22 63 34 SW 998,8 23 0,0
16.01.2020 01:00:00 6,1 2,2 - 39 21 61 33 WSW 997,3 35 0,0
16.01.2020 00:00:00 6,0 2,5 - 48 26 70 38 WSW 995,4 45 0,0
15.01.2020 23:00:00 6,2 3,3 - 37 20 57 31 WSW 993,4 40 0,0
15.01.2020 22:00:00 6,2 3,1 - 44 24 65 35 WSW 991,9 40 0,0
15.01.2020 21:00:00 6,3 3,0 - 46 25 63 34 SW 990,0 40 0,0
15.01.2020 20:00:00 6,5 3,1 - 41 22 61 33 SW 988,7 30 0,0
15.01.2020 19:00:00 6,4 2,8 - 37 20 54 29 SW 987,3 45 0,0
15.01.2020 18:00:00 6,5 2,7 - 31 17 48 26 SW 985,9 45 0,0
15.01.2020 17:00:00 6,7 3,1 - 29 16 52 28 SW 984,7 45 0,0
15.01.2020 16:00:00 6,5 3,0 - 24 13 - - SSW 983,2 35 0,0
15.01.2020 15:00:00 7,1 3,2 - 35 19 54 29 SW 981,6 40 0,0
15.01.2020 14:00:00 6,7 3,0 - 24 13 61 33 SSW 980,3 50 0,0
15.01.2020 13:00:00 6,7 2,6 - 46 25 65 35 SSW 979,1 30 0,0
15.01.2020 12:00:00 6,4 2,4 - 35 19 61 33 S 979,1 30 0,0
15.01.2020 11:00:00 6,1 1,8 - 31 17 67 36 S 978,9 23 0,0
15.01.2020 10:00:00 5,7 1,3 - 39 21 61 33 S 978,0 20 0,0
15.01.2020 09:00:00 5,3 1,7 3,9 39 21 57 31 S 977,7 21 0,0
15.01.2020 08:00:00 4,8 1,4 - 37 20 67 36 S 977,0 35 0,0
15.01.2020 07:00:00 4,5 1,3 - 48 26 76 41 S 975,5 30 0,0
15.01.2020 06:00:00 4,4 1,6 - 41 22 68 37 S 975,7 30 0,0
15.01.2020 05:00:00 4,4 0,7 - 41 22 72 39 S 975,6 26 0,0
15.01.2020 04:00:00 4,7 0,6 - 46 25 70 38 SSW 975,8 40 0,0
15.01.2020 03:00:00 4,2 0,8 - 42 23 68 37 S 975,7 25 0,0
15.01.2020 02:00:00 3,9 0,5 - 50 27 78 42 SSW 975,4 40 0,0
15.01.2020 01:00:00 3,9 0,4 - 44 24 65 35 S 974,8 30 0,0
15.01.2020 00:00:00 3,6 0,4 - 37 20 57 31 S 974,7 35 0,0
14.01.2020 23:00:00 3,5 0,4 - 35 19 54 29 S 974,6 40 0,0
14.01.2020 22:00:00 3,4 0,6 - 34 18 50 27 S 974,2 50 0,0
14.01.2020 21:00:00 3,8 1,1 - 31 17 - - S 974,2 50 0,0
14.01.2020 20:00:00 3,8 0,5 - 26 14 48 26 SSW 974,3 35 0,0
14.01.2020 19:00:00 4,7 0,1 - 35 19 55 30 S 973,7 45 0,0
14.01.2020 18:00:00 4,6 0,1 - 31 17 52 28 S 974,2 30 0,0
14.01.2020 17:00:00 4,6 -0,9 - 31 17 52 28 S 974,4 40 0,0
14.01.2020 16:00:00 4,4 0,1 - 29 16 54 29 S 974,4 35 0,0
14.01.2020 15:00:00 4,8 -0,2 - 37 20 57 31 SSW 974,9 35 0,0
14.01.2020 14:00:00 4,9 -0,4 - 42 23 65 35 S 975,5 35 0,0
14.01.2020 13:00:00 4,9 0,0 - 41 22 65 35 S 976,0 30 0,0
14.01.2020 12:00:00 4,9 0,5 - 41 22 70 38 S 976,4 30 0,0
14.01.2020 11:00:00 3,9 1,0 - 37 20 63 34 SSW 976,6 35 0,0
14.01.2020 10:00:00 3,7 0,3 - 39 21 67 36 S 976,3 35 0,0
14.01.2020 09:00:00 3,6 0,8 4,2 37 20 59 32 SSW 975,7 23 0,0
14.01.2020 08:00:00 3,0 0,4 - 39 21 63 34 S 975,2 45 0,0
14.01.2020 07:00:00 3,3 0,3 - 41 22 65 35 S 974,3 30 0,0
14.01.2020 06:00:00 3,8 0,5 - 39 21 57 31 S 973,4 26 0,0
14.01.2020 05:00:00 3,1 0,5 - 44 24 72 39 SSW 972,8 30 0,0
14.01.2020 04:00:00 3,5 0,9 - 44 24 74 40 SSW 972,3 30 0,0
14.01.2020 03:00:00 4,3 1,2 - 44 24 63 34 S 971,7 18 0,0
14.01.2020 02:00:00 4,5 1,5 - 0 0 80 43 N 970,9 30 0,0
14.01.2020 01:00:00 6,0 2,6 - 42 23 76 41 S 970,1 16 0,0
14.01.2020 00:00:00 6,9 2,6 - 46 25 70 38 SSW 969,2 12 0,0
13.01.2020 23:00:00 7,1 2,9 - 52 28 81 44 SSW 968,3 15 0,0
13.01.2020 22:00:00 6,6 2,9 - 52 28 91 49 S 967,5 23 0,0
13.01.2020 21:00:00 7,5 3,1 - 46 25 76 41 SSE 966,7 13 0,0
13.01.2020 20:00:00 7,4 3,4 - 54 29 89 48 SSE 967,1 12 0,0

tt = Température de l'air
td = dewpoint
tt -20cm = Température de l'air -20cm
ff = Vitesse du vent
fx = gusts
dd = Direction du vent
ppp = reduced air pressure
vv = visibility
rr = Quantités de précipitations

stations d'obs. à proximité